Weather History for KRIL - July, 2012

Change the Weather History Date:

Friday, July 27, 2012

  Actual Average Record
Temperature  
Mean Temperature 76 °F 73 °F  
Max Temperature 92 °F 91 °F 102 °F (1931)
Min Temperature 59 °F 56 °F 39 °F (1944)
Degree Days  
Heating Degree Days 0 0  
Month to date heating degree days 0 0  
Since 1 June heating degree days 10 59  
Since 1 July heating degree days 0 0  
Cooling Degree Days 11 8  
Month to date cooling degree days 279 204  
Year to date cooling degree days 498 306  
Since 1 June cooling degree days 490 299  
Growing Degree Days 26 (Base 50)    
Moisture  
Dew Point 48 °F    
Average Humidity 47    
Maximum Humidity 73    
Minimum Humidity 21    
Precipitation  
Precipitation T in 0.05 in 0.36 in (2010)
Month to date precipitation 1.42 0.90  
Year to date precipitation 3.99 7.34  
Sea Level Pressure  
Sea Level Pressure 30.03 in    
Wind  
Wind Speed 5 mph (SW)    
Max Wind Speed 29 mph    
Max Gust Speed 37 mph    
Visibility 10 miles    
Events Rain , Thunderstorm    
T = Trace of Precipitation, MM = Missing Value Source: NWS Daily Summary

Daily Weather History Graph

Daily Weather History Graph

Search for Another Location

Airport or City:

Trip Planner

Search our weather history database for the weather conditions in past years. The results will help you decide how hot, cold, wet, or windy it might be!

Date:

Astronomy

Jul. 27, 2012 Rise Set
Actual Time 6:06 AM MDT 8:27 PM MDT
Civil Twilight 5:35 AM MDT 8:58 PM MDT
Nautical Twilight 4:58 AM MDT 9:35 PM MDT
Astronomical Twilight 4:16 AM MDT 10:16 PM MDT
Moon 3:28 PM MDT (7/27) 12:41 AM MDT (7/27)
Length of Visible Light 15h 22m
Length of Day
14h 21m
Waxing Gibbous, 66% of the Moon is Illuminated
Jul 27
Waxing Gibbous
Aug 1
Full
Aug 9
Last Quarter
Aug 17
New
Aug 24
First Quarter

Hourly Weather History & Observations

Time (MDT) Temp. Dew Point Humidity Pressure Visibility Wind Dir Wind Speed Gust Speed Precip Events Conditions
12:53 AM 66.0 °F 43.0 °F 43% 29.91 in 10.0 mi ESE 4.6 mph - N/A   Clear
1:53 AM 64.0 °F 45.0 °F 50% 29.90 in 10.0 mi SSW 3.5 mph - N/A   Clear
2:53 AM 63.0 °F 45.0 °F 52% 29.91 in 10.0 mi Calm Calm - N/A   Clear
3:53 AM 63.0 °F 44.1 °F 50% 29.92 in 10.0 mi South 3.5 mph - N/A   Clear
4:53 AM 61.0 °F 45.0 °F 56% 29.92 in 10.0 mi South 3.5 mph - N/A   Clear
5:53 AM 61.0 °F 44.1 °F 54% 29.94 in 10.0 mi Calm Calm - N/A   Clear
6:53 AM 63.0 °F 46.9 °F 56% 29.96 in 10.0 mi Calm Calm - N/A   Clear
7:53 AM 66.0 °F 45.0 °F 47% 29.97 in 10.0 mi Calm Calm - N/A   Clear
8:53 AM 69.1 °F 46.0 °F 44% 29.99 in 10.0 mi Calm Calm - N/A   Clear
9:53 AM 75.9 °F 45.0 °F 33% 29.98 in 10.0 mi Calm Calm - N/A   Clear
10:53 AM 82.9 °F 45.0 °F 26% 29.97 in 10.0 mi West 4.6 mph - N/A   Clear
11:53 AM 88.0 °F 44.1 °F 22% 29.95 in 10.0 mi West 10.4 mph - N/A   Clear
12:44 PM 87.8 °F 44.6 °F 22% 30.17 in 10.0 mi Variable 5.8 mph 16.1 mph N/A Thunderstorm Clear
12:53 PM 90.0 °F 44.1 °F 20% 29.93 in 10.0 mi WNW 10.4 mph 16.1 mph N/A   Clear
1:53 PM 88.0 °F 44.1 °F 22% 29.91 in 10.0 mi West 13.8 mph 23.0 mph 0.00 in   Overcast
2:33 PM 89.6 °F 42.8 °F 20% 30.13 in 10.0 mi SW 18.4 mph 25.3 mph N/A Thunderstorm Thunderstorm
2:44 PM 89.6 °F 44.6 °F 21% 30.13 in 10.0 mi SW 11.5 mph - N/A Thunderstorm Thunderstorm
3:16 PM 87.8 °F 44.6 °F 22% 30.13 in 10.0 mi SSW 21.9 mph 28.8 mph N/A   Mostly Cloudy
3:53 PM 84.9 °F 41.0 °F 21% 29.91 in 10.0 mi South 19.6 mph - N/A   Clear
4:08 PM 82.4 °F 44.6 °F 26% 30.14 in 10.0 mi SSW 26.5 mph 32.2 mph N/A Thunderstorm Scattered Clouds
4:23 PM 82.4 °F 44.6 °F 26% 30.17 in 10.0 mi SSW 20.7 mph 34.5 mph N/A   Mostly Cloudy
4:30 PM 82.4 °F 44.6 °F 26% 30.20 in 10.0 mi West 17.3 mph 29.9 mph N/A Thunderstorm Overcast
4:43 PM 75.2 °F 50.0 °F 41% 30.22 in 8.0 mi NW 27.6 mph 36.8 mph 0.00 in Rain Light Rain
4:53 PM 73.0 °F 52.0 °F 48% 30.06 in 10.0 mi NW 24.2 mph 32.2 mph 0.00 in Rain Light Rain
5:53 PM 68.0 °F 57.0 °F 68% 30.13 in 10.0 mi West 5.8 mph - 0.00 in Rain Light Rain
6:53 PM 69.1 °F 55.0 °F 61% 30.11 in 10.0 mi ESE 4.6 mph - 0.00 in   Overcast
7:53 PM 70.0 °F 55.9 °F 61% 30.09 in 10.0 mi Calm Calm - N/A   Mostly Cloudy
8:53 PM 68.0 °F 55.9 °F 65% 30.10 in 10.0 mi Calm Calm - N/A   Clear
9:53 PM 66.9 °F 55.9 °F 68% 30.09 in 10.0 mi Calm Calm - N/A   Clear
10:53 PM 66.0 °F 57.0 °F 73% 30.08 in 10.0 mi Calm Calm - N/A   Clear
11:53 PM 66.0 °F 57.0 °F 73% 30.06 in 10.0 mi ESE 3.5 mph - N/A   Clear